EIL YSBK-YMCO

Flight info

Callsign EIL
Flight time N/A
Altitude 30000
Route EXETA DCT ATGOD/N0281F290 DCT URBOB DCT MER
Aircraft SF50/M-SDGRWY/L

Departure

Time 2026-04-22 06:17
Airport Sydney Bankstown Airport (YSBK)

Arrival

Time N/A
Airport Mallacoota Airport (YMCO)
Time Latitude Longitude Altitude Speed Heading
2026-04-22 05:55 -33.91723 150.98936 35 ft 0 kts 191°
2026-04-22 06:05 -33.91733 150.98934 35 ft 2 kts 204°
2026-04-22 06:05 -33.91753 150.98917 35 ft 2 kts 222°
2026-04-22 06:06 -33.91771 150.98893 35 ft 12 kts 234°
2026-04-22 06:06 -33.91868 150.98925 35 ft 15 kts 150°
2026-04-22 06:06 -33.91943 150.98975 35 ft 10 kts 150°
2026-04-22 06:06 -33.91980 150.99001 35 ft 10 kts 150°
2026-04-22 06:07 -33.92036 150.99041 35 ft 4 kts 149°
2026-04-22 06:07 -33.92057 150.99055 35 ft 5 kts 153°
2026-04-22 06:07 -33.92084 150.99050 35 ft 4 kts 215°
2026-04-22 06:07 -33.92094 150.99041 35 ft 0 kts 215°
2026-04-22 06:09 -33.92115 150.99026 35 ft 5 kts 198°
2026-04-22 06:09 -33.92147 150.99050 34 ft 12 kts 126°
2026-04-22 06:09 -33.92193 150.99134 34 ft 8 kts 123°
2026-04-22 06:09 -33.92211 150.99173 34 ft 7 kts 77°
2026-04-22 06:10 -33.92211 150.99232 34 ft 5 kts 126°
2026-04-22 06:10 -33.92217 150.99235 34 ft 0 kts 242°
2026-04-22 06:11 -33.92258 150.99249 34 ft 13 kts 123°
2026-04-22 06:11 -33.92297 150.99320 35 ft 7 kts 123°
2026-04-22 06:11 -33.92325 150.99372 35 ft 12 kts 123°
2026-04-22 06:12 -33.92371 150.99453 35 ft 10 kts 124°
2026-04-22 06:12 -33.92403 150.99510 35 ft 11 kts 120°
2026-04-22 06:12 -33.92456 150.99599 35 ft 11 kts 137°
2026-04-22 06:12 -33.92492 150.99644 35 ft 4 kts 122°
2026-04-22 06:13 -33.92513 150.99680 35 ft 4 kts 156°
2026-04-22 06:13 -33.92545 150.99664 37 ft 9 kts 213°
2026-04-22 06:13 -33.92624 150.99642 35 ft 12 kts 173°
2026-04-22 06:13 -33.92667 150.99625 35 ft 1 kts 273°
2026-04-22 06:14 -33.92666 150.99621 35 ft 0 kts 298°
2026-04-22 06:15 -33.92666 150.99622 35 ft 0 kts 298°
2026-04-22 06:16 -33.92640 150.99578 36 ft 28 kts 305°
2026-04-22 06:16 -33.92416 150.99177 34 ft 86 kts 304°
2026-04-22 06:16 -33.91999 150.98439 157 ft 118 kts 301°
2026-04-22 06:17 -33.91539 150.97591 527 ft 124 kts 301°
2026-04-22 06:17 -33.91063 150.96693 942 ft 125 kts 300°
2026-04-22 06:17 -33.90574 150.95775 1238 ft 133 kts 303°
2026-04-22 06:17 -33.90082 150.94855 1551 ft 139 kts 299°
2026-04-22 06:18 -33.89507 150.93727 1523 ft 173 kts 300°
2026-04-22 06:18 -33.88846 150.92410 1504 ft 194 kts 300°
2026-04-22 06:18 -33.88223 150.90935 1490 ft 200 kts 282°
2026-04-22 06:18 -33.88342 150.89337 1467 ft 190 kts 239°
2026-04-22 06:19 -33.89215 150.88291 1482 ft 173 kts 205°
2026-04-22 06:19 -33.90224 150.87538 1481 ft 171 kts 206°
2026-04-22 06:19 -33.91195 150.86749 1480 ft 169 kts 210°
2026-04-22 06:19 -33.92176 150.85954 1491 ft 171 kts 209°
2026-04-22 06:20 -33.93156 150.85167 1601 ft 165 kts 210°
2026-04-22 06:20 -33.94078 150.84418 1918 ft 157 kts 210°
2026-04-22 06:20 -33.95034 150.83647 2224 ft 173 kts 208°
2026-04-22 06:20 -33.96070 150.82819 2558 ft 184 kts 209°
2026-04-22 06:21 -33.97160 150.81946 2903 ft 192 kts 210°
2026-04-22 06:21 -33.98280 150.81042 3234 ft 200 kts 210°
2026-04-22 06:21 -33.99455 150.80097 3574 ft 207 kts 210°
2026-04-22 06:21 -34.00672 150.79121 3898 ft 214 kts 210°
2026-04-22 06:22 -34.01927 150.78105 4229 ft 219 kts 211°
2026-04-22 06:22 -34.03212 150.77066 4563 ft 225 kts 211°
2026-04-22 06:22 -34.04526 150.76005 4895 ft 229 kts 212°
2026-04-22 06:22 -34.05862 150.74924 5228 ft 234 kts 212°
2026-04-22 06:23 -34.07226 150.73823 5555 ft 236 kts 212°
2026-04-22 06:23 -34.08590 150.72722 5990 ft 234 kts 212°
2026-04-22 06:23 -34.09936 150.71629 6448 ft 233 kts 212°
2026-04-22 06:23 -34.11283 150.70540 6893 ft 232 kts 212°
2026-04-22 06:24 -34.13610 150.67967 7743 ft 228 kts 239°
2026-04-22 06:24 -34.14672 150.66606 8160 ft 222 kts 207°
2026-04-22 06:24 -34.16107 150.66007 8603 ft 217 kts 192°
2026-04-22 06:25 -34.17536 150.65426 9064 ft 217 kts 201°
2026-04-22 06:25 -34.18824 150.64505 9519 ft 218 kts 212°
2026-04-22 06:25 -34.20052 150.63431 9987 ft 217 kts 212°
2026-04-22 06:25 -34.21290 150.62405 10427 ft 215 kts 209°
2026-04-22 06:26 -34.22529 150.61413 10854 ft 212 kts 209°
2026-04-22 06:26 -34.23751 150.60424 11281 ft 210 kts 209°
2026-04-22 06:26 -34.24955 150.59444 11717 ft 207 kts 209°
2026-04-22 06:26 -34.26143 150.58479 12156 ft 204 kts 208°
2026-04-22 06:27 -34.27315 150.57528 12581 ft 202 kts 208°
2026-04-22 06:27 -34.28476 150.56583 13005 ft 200 kts 208°
2026-04-22 06:27 -34.29621 150.55652 13413 ft 198 kts 207°
2026-04-22 06:27 -34.30761 150.54722 13816 ft 196 kts 207°
2026-04-22 06:28 -34.31892 150.53803 14198 ft 195 kts 207°
2026-04-22 06:28 -34.33014 150.52892 14565 ft 194 kts 207°
2026-04-22 06:28 -34.34130 150.51982 14916 ft 193 kts 207°
2026-04-22 06:28 -34.35226 150.51087 15271 ft 192 kts 206°
2026-04-22 06:29 -34.36332 150.50188 15632 ft 191 kts 207°
2026-04-22 06:29 -34.37269 150.49033 15949 ft 197 kts 228°
2026-04-22 06:29 -34.38230 150.47954 16260 ft 186 kts 206°
2026-04-22 06:29 -34.39337 150.47103 16514 ft 189 kts 204°
2026-04-22 06:30 -34.40536 150.46396 16600 ft 198 kts 193°
2026-04-22 06:30 -34.41892 150.45857 16621 ft 211 kts 192°
2026-04-22 06:30 -34.43366 150.45572 16633 ft 221 kts 180°
2026-04-22 06:30 -34.44936 150.45417 16746 ft 230 kts 181°
2026-04-22 06:31 -34.46522 150.45150 16978 ft 234 kts 185°
2026-04-22 06:31 -34.48174 150.44780 16990 ft 248 kts 186°
2026-04-22 06:31 -34.49912 150.44393 17000 ft 259 kts 185°
2026-04-22 06:31 -34.51720 150.44013 16998 ft 268 kts 185°
2026-04-22 06:32 -34.53556 150.43628 16998 ft 275 kts 185°
2026-04-22 06:32 -34.55463 150.43221 16997 ft 280 kts 186°
2026-04-22 06:32 -34.57404 150.42809 17000 ft 285 kts 186°
2026-04-22 06:32 -34.59377 150.42391 17003 ft 289 kts 186°
2026-04-22 06:33 -34.61372 150.41968 17002 ft 292 kts 186°
2026-04-22 06:33 -34.63385 150.41540 17003 ft 296 kts 186°
2026-04-22 06:33 -34.65424 150.41106 17000 ft 299 kts 186°
2026-04-22 06:33 -34.67488 150.40668 17000 ft 302 kts 186°
2026-04-22 06:34 -34.69566 150.40227 17002 ft 304 kts 186°
2026-04-22 06:34 -34.71629 150.39788 17003 ft 306 kts 186°
2026-04-22 06:34 -34.73735 150.39340 17004 ft 308 kts 186°
2026-04-22 06:34 -34.75857 150.38890 17001 ft 310 kts 186°
2026-04-22 06:35 -34.77987 150.38434 17005 ft 312 kts 186°
2026-04-22 06:35 -34.80130 150.37980 17001 ft 314 kts 186°
2026-04-22 06:35 -34.82283 150.37520 17005 ft 315 kts 186°
2026-04-22 06:35 -34.84449 150.37059 17004 ft 316 kts 186°
2026-04-22 06:36 -34.86620 150.36595 17005 ft 318 kts 186°
2026-04-22 06:36 -34.88803 150.36129 17002 ft 319 kts 186°
2026-04-22 06:36 -34.90994 150.35662 17007 ft 320 kts 186°
2026-04-22 06:36 -34.93194 150.35192 17006 ft 321 kts 186°
2026-04-22 06:37 -34.95400 150.34718 17006 ft 322 kts 186°
2026-04-22 06:37 -34.97616 150.34245 17001 ft 323 kts 186°
2026-04-22 06:37 -34.99829 150.33771 17001 ft 323 kts 186°
2026-04-22 06:37 -35.02043 150.33296 17000 ft 323 kts 186°
2026-04-22 06:38 -35.04263 150.32819 16996 ft 324 kts 186°
2026-04-22 06:38 -35.06477 150.32344 17007 ft 324 kts 186°
2026-04-22 06:38 -35.08700 150.31867 16998 ft 325 kts 186°
2026-04-22 06:38 -35.10896 150.31395 16998 ft 325 kts 186°
2026-04-22 06:39 -35.13120 150.30917 16995 ft 325 kts 186°
2026-04-22 06:39 -35.15352 150.30439 16995 ft 325 kts 186°
2026-04-22 06:39 -35.17580 150.29959 16994 ft 325 kts 186°
2026-04-22 06:39 -35.19812 150.29479 16995 ft 325 kts 186°
2026-04-22 06:40 -35.22044 150.28999 16998 ft 326 kts 186°
2026-04-22 06:40 -35.24278 150.28520 16998 ft 325 kts 186°
2026-04-22 06:40 -35.26509 150.28039 17005 ft 326 kts 186°
2026-04-22 06:40 -35.28745 150.27556 17004 ft 327 kts 186°
2026-04-22 06:41 -35.30988 150.27072 17003 ft 328 kts 186°
2026-04-22 06:41 -35.33237 150.26585 17002 ft 328 kts 186°
2026-04-22 06:41 -35.35484 150.26100 17006 ft 328 kts 186°
2026-04-22 06:41 -35.37733 150.25617 17005 ft 328 kts 186°
2026-04-22 06:42 -35.39985 150.25128 17002 ft 329 kts 186°
2026-04-22 06:42 -35.42239 150.24640 17001 ft 329 kts 186°
2026-04-22 06:42 -35.44491 150.24152 17002 ft 329 kts 186°
2026-04-22 06:42 -35.46720 150.23670 16997 ft 329 kts 186°
2026-04-22 06:43 -35.48981 150.23179 16995 ft 330 kts 186°
2026-04-22 06:43 -35.51239 150.22688 16997 ft 329 kts 186°
2026-04-22 06:43 -35.53497 150.22198 16996 ft 330 kts 186°
2026-04-22 06:43 -35.55758 150.21707 16996 ft 330 kts 186°
2026-04-22 06:44 -35.58019 150.21217 16993 ft 330 kts 186°
2026-04-22 06:44 -35.60285 150.20723 16992 ft 330 kts 186°
2026-04-22 06:44 -35.62547 150.20232 16996 ft 330 kts 186°
2026-04-22 06:44 -35.64811 150.19740 17000 ft 331 kts 186°
2026-04-22 06:45 -35.67076 150.19246 16995 ft 331 kts 186°
2026-04-22 06:45 -35.69321 150.18757 16997 ft 331 kts 186°
2026-04-22 06:45 -35.71596 150.18262 16998 ft 332 kts 186°
2026-04-22 06:45 -35.73868 150.17768 16999 ft 332 kts 186°
2026-04-22 06:46 -35.76147 150.17270 16996 ft 332 kts 186°
2026-04-22 06:46 -35.78421 150.16773 16996 ft 332 kts 186°
2026-04-22 06:46 -35.80706 150.16274 16995 ft 333 kts 186°
2026-04-22 06:46 -35.82987 150.15776 16995 ft 333 kts 186°
2026-04-22 06:47 -35.85275 150.15275 16993 ft 333 kts 186°
2026-04-22 06:47 -35.87558 150.14774 16995 ft 333 kts 186°
2026-04-22 06:47 -35.89844 150.14274 16995 ft 334 kts 186°
2026-04-22 06:47 -35.92126 150.13754 16997 ft 334 kts 187°
2026-04-22 06:48 -35.94409 150.13195 16996 ft 335 kts 187°
2026-04-22 06:48 -35.96698 150.12643 16994 ft 335 kts 187°
2026-04-22 06:48 -35.98986 150.12107 16998 ft 335 kts 187°
2026-04-22 06:48 -36.01250 150.11575 16993 ft 335 kts 187°
2026-04-22 06:49 -36.03541 150.11030 16995 ft 336 kts 187°
2026-04-22 06:49 -36.05839 150.10482 16995 ft 336 kts 187°
2026-04-22 06:49 -36.08130 150.09940 16995 ft 336 kts 187°
2026-04-22 06:49 -36.10430 150.09394 16995 ft 336 kts 187°
2026-04-22 06:50 -36.12731 150.08848 16993 ft 336 kts 187°
2026-04-22 06:50 -36.15031 150.08300 16998 ft 337 kts 188°
2026-04-22 06:50 -36.17331 150.07754 16997 ft 337 kts 188°
2026-04-22 06:50 -36.19636 150.07206 16996 ft 337 kts 188°
2026-04-22 06:51 -36.21935 150.06657 16999 ft 336 kts 188°
2026-04-22 06:51 -36.24239 150.06107 17003 ft 337 kts 188°
2026-04-22 06:51 -36.26495 150.05568 17001 ft 325 kts 187°
2026-04-22 06:51 -36.28697 150.05043 16997 ft 320 kts 187°
2026-04-22 06:52 -36.30842 150.04530 17000 ft 316 kts 187°
2026-04-22 06:52 -36.32989 150.04019 16993 ft 313 kts 187°
2026-04-22 06:52 -36.35105 150.03424 16992 ft 312 kts 196°
2026-04-22 06:52 -36.36949 150.02001 16992 ft 317 kts 220°
2026-04-22 06:53 -36.38183 149.99741 16994 ft 320 kts 245°
2026-04-22 06:53 -36.38581 149.97032 16996 ft 322 kts 270°
2026-04-22 06:53 -36.38067 149.94351 16997 ft 320 kts 295°
2026-04-22 06:53 -36.36747 149.92163 16996 ft 316 kts 318°
2026-04-22 06:54 -36.35051 149.90445 17001 ft 314 kts 325°
2026-04-22 06:54 -36.33886 149.89376 17004 ft 313 kts 326°
2026-04-22 06:54 -36.31527 149.87258 17001 ft 313 kts 326°
2026-04-22 06:54 -36.29782 149.85700 17001 ft 312 kts 326°
2026-04-22 06:55 -36.28014 149.84121 17000 ft 312 kts 326°
2026-04-22 06:55 -36.26842 149.83075 17000 ft 313 kts 326°
2026-04-22 06:55 -36.25077 149.81499 17005 ft 313 kts 326°
2026-04-22 06:55 -36.23312 149.79921 17007 ft 313 kts 326°
2026-04-22 06:56 -36.21545 149.78343 17006 ft 313 kts 326°
2026-04-22 06:56 -36.19778 149.76764 17002 ft 313 kts 326°
2026-04-22 06:56 -36.18013 149.75184 17004 ft 313 kts 326°
2026-04-22 06:56 -36.16249 149.73605 17006 ft 313 kts 326°
2026-04-22 06:57 -36.14481 149.72021 17003 ft 313 kts 326°
2026-04-22 06:57 -36.12720 149.70441 17002 ft 313 kts 326°
2026-04-22 06:57 -36.10958 149.68860 17003 ft 313 kts 326°
2026-04-22 06:57 -36.09195 149.67282 17002 ft 313 kts 326°
2026-04-22 06:58 -36.07428 149.65699 17000 ft 313 kts 326°
2026-04-22 06:58 -36.05664 149.64118 16999 ft 313 kts 326°
2026-04-22 06:58 -36.03885 149.62567 16997 ft 311 kts 331°
2026-04-22 06:58 -36.01877 149.61682 16997 ft 306 kts 352°
2026-04-22 06:59 -35.99776 149.61338 17001 ft 305 kts 356°
2026-04-22 06:59 -35.97678 149.60897 16998 ft 307 kts 349°
2026-04-22 06:59 -35.95722 149.59923 17000 ft 309 kts 335°
2026-04-22 06:59 -35.93861 149.58572 17001 ft 311 kts 329°
2026-04-22 07:00 -35.92089 149.57021 16995 ft 313 kts 325°
2026-04-22 07:00 -35.90369 149.55374 16999 ft 313 kts 325°
2026-04-22 07:00 -35.88553 149.53937 17095 ft 308 kts 332°
2026-04-22 07:00 -35.86715 149.52588 17223 ft 306 kts 330°
2026-04-22 07:01 -35.84953 149.51129 17338 ft 304 kts 327°
2026-04-22 07:01 -35.83211 149.49617 17340 ft 307 kts 327°
2026-04-22 07:01 -35.81431 149.48139 17337 ft 309 kts 328°
2026-04-22 07:01 -35.79661 149.46701 17339 ft 310 kts 328°
2026-04-22 07:02 -35.77867 149.45224 17342 ft 310 kts 328°
2026-04-22 07:02 -35.76074 149.43732 17339 ft 311 kts 328°
2026-04-22 07:02 -35.74254 149.42224 17014 ft 322 kts 328°
2026-04-22 07:02 -35.72334 149.40646 16361 ft 341 kts 328°
2026-04-22 07:03 -35.70351 149.39013 15688 ft 336 kts 328°
2026-04-22 07:03 -35.68449 149.37437 15029 ft 325 kts 328°
2026-04-22 07:03 -35.66582 149.35900 14391 ft 320 kts 329°
2026-04-22 07:03 -35.64740 149.34386 13734 ft 317 kts 329°
2026-04-22 07:04 -35.62919 149.32889 13105 ft 313 kts 328°
2026-04-22 07:04 -35.61115 149.31404 12490 ft 311 kts 328°
2026-04-22 07:04 -35.59325 149.29935 11883 ft 308 kts 328°
2026-04-22 07:04 -35.57575 149.28498 11287 ft 301 kts 328°
2026-04-22 07:05 -35.55914 149.27130 10717 ft 273 kts 328°
2026-04-22 07:05 -35.54388 149.25878 10193 ft 257 kts 328°
2026-04-22 07:05 -35.52925 149.24680 9666 ft 249 kts 327°
2026-04-22 07:05 -35.51492 149.23507 9182 ft 246 kts 327°
2026-04-22 07:06 -35.50023 149.22460 8693 ft 243 kts 341°
2026-04-22 07:06 -35.48374 149.22326 8360 ft 238 kts 13°
2026-04-22 07:06 -35.46952 149.23266 8183 ft 233 kts 45°
2026-04-22 07:06 -35.46094 149.24925 8019 ft 232 kts 73°
2026-04-22 07:07 -35.45889 149.26871 7867 ft 231 kts 81°
2026-04-22 07:07 -35.45181 149.28632 7701 ft 236 kts 50°
2026-04-22 07:07 -35.43818 149.29686 7538 ft 239 kts 19°
2026-04-22 07:07 -35.42171 149.29719 7376 ft 241 kts 346°
2026-04-22 07:08 -35.40747 149.28696 7220 ft 239 kts 314°
2026-04-22 07:08 -35.39866 149.27000 7088 ft 236 kts 292°
2026-04-22 07:08 -35.39515 149.25053 6855 ft 235 kts 275°
2026-04-22 07:08 -35.39411 149.23042 6068 ft 232 kts 265°
2026-04-22 07:09 -35.39505 149.21100 5254 ft 225 kts 268°
2026-04-22 07:09 -35.39151 149.19251 4347 ft 226 kts 305°
2026-04-22 07:09 -35.37900 149.18749 4051 ft 182 kts 19°
2026-04-22 07:09 -35.36787 149.19215 3395 ft 165 kts 21°
2026-04-22 07:10 -35.35724 149.19416 2980 ft 144 kts
2026-04-22 07:10 -35.34774 149.19386 2678 ft 135 kts
2026-04-22 07:10 -35.33887 149.19427 2483 ft 114 kts
2026-04-22 07:10 -35.33153 149.19440 2272 ft 102 kts
2026-04-22 07:11 -35.32436 149.19442 2091 ft 102 kts
2026-04-22 07:11 -35.31731 149.19446 1932 ft 99 kts
2026-04-22 07:11 -35.31103 149.19452 1876 ft 79 kts
2026-04-22 07:11 -35.30641 149.19444 1880 ft 58 kts 360°
2026-04-22 07:12 -35.30270 149.19445 1875 ft 40 kts 360°
2026-04-22 07:12 -35.30219 149.19527 1876 ft 11 kts 111°
2026-04-22 07:12 -35.30237 149.19588 1877 ft 4 kts 119°
2026-04-22 07:12 -35.30280 149.19670 1877 ft 14 kts 117°
2026-04-22 07:13 -35.30238 149.19745 1878 ft 10 kts 36°
2026-04-22 07:13 -35.30217 149.19763 1878 ft 0 kts 36°
2026-04-22 07:18 -35.30212 149.19759 1878 ft 4 kts 284°
2026-04-22 07:18 -35.30228 149.19695 1877 ft 13 kts 238°
2026-04-22 07:18 -35.30226 149.19551 1876 ft 23 kts 291°
2026-04-22 07:18 -35.30166 149.19346 1872 ft 25 kts 289°
2026-04-22 07:19 -35.30236 149.19239 1873 ft 17 kts 179°
2026-04-22 07:19 -35.30356 149.19239 1876 ft 18 kts 181°
2026-04-22 07:19 -35.30481 149.19240 1876 ft 18 kts 180°
2026-04-22 07:19 -35.30609 149.19240 1879 ft 18 kts 181°
2026-04-22 07:20 -35.30736 149.19239 1881 ft 18 kts 179°
2026-04-22 07:20 -35.30862 149.19239 1879 ft 20 kts 179°
2026-04-22 07:20 -35.31011 149.19240 1876 ft 22 kts 179°
2026-04-22 07:20 -35.31172 149.19240 1874 ft 24 kts 182°
2026-04-22 07:21 -35.31347 149.19241 1869 ft 26 kts 181°
2026-04-22 07:21 -35.31532 149.19239 1869 ft 27 kts 180°
2026-04-22 07:21 -35.31716 149.19239 1870 ft 26 kts 180°
2026-04-22 07:21 -35.31896 149.19239 1873 ft 22 kts 180°
2026-04-22 07:22 -35.31989 149.19290 1876 ft 12 kts 124°
2026-04-22 07:22 -35.32009 149.19383 1876 ft 13 kts 89°
2026-04-22 07:22 -35.31981 149.19445 1874 ft 0 kts 360°
2026-04-22 07:22 -35.31863 149.19444 1873 ft 45 kts
2026-04-22 07:23 -35.31367 149.19444 1871 ft 96 kts 360°
2026-04-22 07:23 -35.30627 149.19452 2105 ft 111 kts
2026-04-22 07:23 -35.29906 149.19476 2664 ft 97 kts
2026-04-22 07:23 -35.29461 149.19939 3050 ft 91 kts 87°
2026-04-22 07:24 -35.29461 149.20670 3436 ft 85 kts 65°
2026-04-22 07:24 -35.29074 149.21192 3718 ft 84 kts 62°
2026-04-22 07:24 -35.28782 149.21791 3954 ft 82 kts 53°
2026-04-22 07:24 -35.28395 149.22416 4149 ft 103 kts 59°
2026-04-22 07:25 -35.27909 149.23221 4209 ft 142 kts 55°
2026-04-22 07:25 -35.27301 149.24225 4762 ft 141 kts 53°
2026-04-22 07:25 -35.26624 149.25195 5092 ft 162 kts 52°
2026-04-22 07:25 -35.25860 149.26325 5425 ft 177 kts 52°
2026-04-22 07:26 -35.25086 149.27493 5965 ft 177 kts 53°
2026-04-22 07:26 -35.24302 149.28681 6436 ft 181 kts 52°
2026-04-22 07:26 -35.23502 149.29891 6896 ft 185 kts 53°
2026-04-22 07:26 -35.22691 149.31116 7348 ft 185 kts 53°
2026-04-22 07:27 -35.21885 149.32332 7811 ft 184 kts 53°
2026-04-22 07:27 -35.21080 149.33546 8239 ft 184 kts 53°
2026-04-22 07:27 -35.20270 149.34767 8686 ft 184 kts 54°
2026-04-22 07:27 -35.19462 149.35983 9114 ft 185 kts 53°
2026-04-22 07:28 -35.17846 149.38414 9926 ft 185 kts 53°
2026-04-22 07:28 -35.17032 149.39639 10320 ft 186 kts 54°
2026-04-22 07:28 -35.16212 149.40871 10669 ft 187 kts 54°
2026-04-22 07:29 -35.15393 149.42105 11020 ft 187 kts 54°
2026-04-22 07:29 -35.14570 149.43339 11373 ft 187 kts 54°
2026-04-22 07:29 -35.13747 149.44576 11733 ft 188 kts 54°
2026-04-22 07:29 -35.12920 149.45817 12098 ft 188 kts 54°
2026-04-22 07:30 -35.12095 149.47059 12463 ft 188 kts 54°
2026-04-22 07:30 -35.11266 149.48303 12816 ft 189 kts 55°
2026-04-22 07:30 -35.10435 149.49554 13185 ft 189 kts 55°
2026-04-22 07:30 -35.09603 149.50802 13537 ft 190 kts 55°
2026-04-22 07:31 -35.08767 149.52054 13915 ft 190 kts 56°
2026-04-22 07:31 -35.07929 149.53315 14269 ft 191 kts 56°
2026-04-22 07:31 -35.07098 149.54561 14574 ft 193 kts 56°
2026-04-22 07:31 -35.06249 149.55833 14882 ft 194 kts 56°
2026-04-22 07:32 -35.05392 149.57117 15197 ft 195 kts 56°
2026-04-22 07:32 -35.04533 149.58407 15520 ft 197 kts 56°
2026-04-22 07:32 -35.03664 149.59706 15832 ft 198 kts 56°
2026-04-22 07:32 -35.02787 149.61018 16171 ft 200 kts 56°
2026-04-22 07:33 -35.01905 149.62336 16505 ft 201 kts 56°
2026-04-22 07:33 -35.01016 149.63664 16839 ft 203 kts 56°
2026-04-22 07:33 -35.00119 149.65006 17002 ft 213 kts 56°
2026-04-22 07:33 -34.99147 149.66464 17015 ft 229 kts 56°
2026-04-22 07:34 -34.98104 149.68018 17015 ft 244 kts 56°
2026-04-22 07:34 -34.97006 149.69655 17022 ft 255 kts 55°
2026-04-22 07:34 -34.95864 149.71356 17017 ft 264 kts 55°
2026-04-22 07:34 -34.94687 149.73111 17022 ft 270 kts 55°
2026-04-22 07:35 -34.93485 149.74899 17017 ft 275 kts 55°
2026-04-22 07:35 -34.92261 149.76722 17019 ft 279 kts 55°
2026-04-22 07:35 -34.91023 149.78565 17017 ft 282 kts 55°
2026-04-22 07:35 -34.89775 149.80424 17017 ft 284 kts 55°
2026-04-22 07:36 -34.88517 149.82295 17016 ft 286 kts 55°
2026-04-22 07:36 -34.87251 149.84177 17021 ft 287 kts 55°
2026-04-22 07:36 -34.85980 149.86063 17023 ft 289 kts 55°
2026-04-22 07:36 -34.84724 149.87932 17024 ft 289 kts 55°
2026-04-22 07:37 -34.83445 149.89829 17024 ft 290 kts 55°
2026-04-22 07:37 -34.82164 149.91728 17023 ft 291 kts 55°
2026-04-22 07:37 -34.80882 149.93631 17027 ft 291 kts 55°
2026-04-22 07:37 -34.79595 149.95537 17028 ft 291 kts 55°
2026-04-22 07:38 -34.78307 149.97443 17028 ft 292 kts 56°
2026-04-22 07:38 -34.77016 149.99353 17027 ft 292 kts 56°
2026-04-22 07:38 -34.75725 150.01264 17027 ft 292 kts 56°
2026-04-22 07:38 -34.74429 150.03178 17027 ft 292 kts 56°
2026-04-22 07:39 -34.73132 150.05093 17026 ft 292 kts 56°
2026-04-22 07:39 -34.71857 150.06975 17028 ft 292 kts 56°
2026-04-22 07:39 -34.70565 150.08883 17024 ft 292 kts 56°
2026-04-22 07:39 -34.69270 150.10792 17026 ft 292 kts 56°
2026-04-22 07:40 -34.67976 150.12700 17026 ft 292 kts 56°
2026-04-22 07:40 -34.66679 150.14610 17031 ft 293 kts 56°
2026-04-22 07:40 -34.65384 150.16516 17027 ft 293 kts 56°
2026-04-22 07:40 -34.64087 150.18427 17025 ft 293 kts 56°
2026-04-22 07:41 -34.62791 150.20334 17027 ft 293 kts 56°
2026-04-22 07:41 -34.61493 150.22244 17028 ft 293 kts 56°
2026-04-22 07:41 -34.60191 150.24157 17031 ft 293 kts 56°
2026-04-22 07:41 -34.59330 150.25422 17029 ft 293 kts 56°
2026-04-22 07:42 -34.57603 150.27958 17030 ft 293 kts 56°
2026-04-22 07:42 -34.56300 150.29870 17030 ft 294 kts 56°
2026-04-22 07:42 -34.55440 150.31133 17026 ft 294 kts 56°
2026-04-22 07:42 -34.54135 150.33045 17026 ft 294 kts 56°
2026-04-22 07:43 -34.52829 150.34958 17028 ft 294 kts 56°
2026-04-22 07:43 -34.51523 150.36873 17026 ft 294 kts 56°
2026-04-22 07:43 -34.50214 150.38788 17022 ft 295 kts 56°
2026-04-22 07:43 -34.48905 150.40701 17024 ft 295 kts 56°
2026-04-22 07:44 -34.47597 150.42613 17024 ft 295 kts 56°
2026-04-22 07:44 -34.46050 150.44268 17003 ft 305 kts 36°
2026-04-22 07:44 -34.43999 150.45046 17007 ft 317 kts 10°
2026-04-22 07:44 -34.41789 150.44741 17004 ft 326 kts 345°
2026-04-22 07:45 -34.39778 150.43470 17009 ft 327 kts 327°
2026-04-22 07:45 -34.37922 150.41875 17008 ft 327 kts 324°
2026-04-22 07:45 -34.36118 150.40252 17012 ft 328 kts 324°
2026-04-22 07:45 -34.34287 150.38593 17012 ft 329 kts 323°
2026-04-22 07:46 -34.32454 150.36929 17011 ft 329 kts 324°
2026-04-22 07:46 -34.30622 150.35265 17011 ft 329 kts 323°
2026-04-22 07:46 -34.28787 150.33599 17012 ft 330 kts 323°
2026-04-22 07:46 -34.26952 150.31932 17011 ft 330 kts 323°
2026-04-22 07:47 -34.25117 150.30266 17015 ft 330 kts 323°
2026-04-22 07:47 -34.23280 150.28601 17011 ft 329 kts 323°
2026-04-22 07:47 -34.21448 150.26945 17008 ft 329 kts 323°
2026-04-22 07:47 -34.19613 150.25288 17008 ft 329 kts 323°
2026-04-22 07:48 -34.17781 150.23634 17008 ft 329 kts 323°
2026-04-22 07:48 -34.15947 150.21980 17005 ft 329 kts 323°
2026-04-22 07:48 -34.14116 150.20329 17005 ft 329 kts 323°
2026-04-22 07:48 -34.12283 150.18673 17005 ft 329 kts 323°
2026-04-22 07:49 -34.10453 150.17023 17003 ft 328 kts 323°
2026-04-22 07:49 -34.08625 150.15375 17005 ft 328 kts 323°
2026-04-22 07:49 -34.06798 150.13725 17007 ft 327 kts 323°
2026-04-22 07:49 -34.04973 150.12082 17005 ft 327 kts 323°
2026-04-22 07:50 -34.03160 150.10432 17004 ft 326 kts 321°
2026-04-22 07:50 -34.01740 150.08324 16997 ft 324 kts 296°
2026-04-22 07:50 -34.01137 150.05751 16998 ft 318 kts 271°
2026-04-22 07:50 -34.01443 150.03169 16997 ft 308 kts 245°
2026-04-22 07:51 -34.02549 150.01073 16995 ft 297 kts 220°
2026-04-22 07:51 -34.04252 149.99785 16999 ft 285 kts 195°
2026-04-22 07:51 -34.06175 149.99563 16999 ft 277 kts 169°
2026-04-22 07:51 -34.07930 150.00422 17000 ft 273 kts 144°
2026-04-22 07:52 -34.09224 150.02077 17002 ft 272 kts 128°
2026-04-22 07:52 -34.10300 150.03951 17011 ft 272 kts 125°
2026-04-22 07:52 -34.11342 150.05860 17014 ft 272 kts 124°
2026-04-22 07:52 -34.12378 150.07778 17008 ft 272 kts 124°
2026-04-22 07:53 -34.13413 150.09696 17012 ft 273 kts 124°
2026-04-22 07:53 -34.14449 150.11614 17014 ft 273 kts 124°
2026-04-22 07:53 -34.15485 150.13529 17020 ft 273 kts 124°
2026-04-22 07:53 -34.16525 150.15444 17019 ft 272 kts 124°
2026-04-22 07:54 -34.17563 150.17361 17019 ft 272 kts 124°
2026-04-22 07:54 -34.18600 150.19276 17017 ft 273 kts 124°
2026-04-22 07:54 -34.19629 150.21176 17025 ft 273 kts 125°
2026-04-22 07:54 -34.20668 150.23099 17021 ft 273 kts 124°
2026-04-22 07:55 -34.21710 150.25019 17021 ft 273 kts 124°
2026-04-22 07:55 -34.22749 150.26934 17023 ft 272 kts 124°
2026-04-22 07:55 -34.23788 150.28848 17019 ft 272 kts 124°
2026-04-22 07:55 -34.24828 150.30760 17028 ft 272 kts 124°
2026-04-22 07:56 -34.25861 150.32666 17025 ft 271 kts 124°
2026-04-22 07:56 -34.26894 150.34577 17022 ft 271 kts 124°
2026-04-22 07:56 -34.27560 150.36680 17004 ft 277 kts 102°
2026-04-22 07:56 -34.27360 150.39015 17007 ft 287 kts 76°
2026-04-22 07:57 -34.26279 150.41085 17005 ft 300 kts 51°
2026-04-22 07:57 -34.24524 150.42525 17009 ft 309 kts 32°
2026-04-22 07:57 -34.22563 150.43604 17008 ft 310 kts 28°
2026-04-22 07:57 -34.20569 150.44615 17010 ft 310 kts 27°
2026-04-22 07:58 -34.18448 150.45113 17006 ft 319 kts
2026-04-22 07:58 -34.16365 150.44576 17028 ft 325 kts 339°
2026-04-22 07:58 -34.14507 150.43025 17011 ft 327 kts 315°
2026-04-22 07:58 -34.13031 150.40945 17018 ft 326 kts 307°
2026-04-22 07:59 -34.11651 150.38775 17017 ft 325 kts 306°
2026-04-22 07:59 -34.10287 150.36600 17018 ft 325 kts 306°
2026-04-22 07:59 -34.08925 150.34413 17019 ft 326 kts 306°
2026-04-22 07:59 -34.07562 150.32221 17017 ft 327 kts 306°
2026-04-22 08:00 -34.06197 150.30029 17019 ft 327 kts 306°
2026-04-22 08:00 -34.04846 150.27857 17015 ft 327 kts 305°
2026-04-22 08:00 -34.03473 150.25655 17018 ft 327 kts 306°
2026-04-22 08:00 -34.02103 150.23456 17015 ft 327 kts 306°
2026-04-22 08:01 -34.00741 150.21260 17012 ft 326 kts 306°
2026-04-22 08:01 -33.99384 150.19070 17016 ft 326 kts 305°
2026-04-22 08:01 -33.98025 150.16875 17016 ft 327 kts 305°
2026-04-22 08:01 -33.96661 150.14674 17012 ft 327 kts 306°
2026-04-22 08:02 -33.95319 150.12503 17012 ft 327 kts 305°
2026-04-22 08:02 -33.93962 150.10303 17009 ft 327 kts 306°
2026-04-22 08:02 -33.92608 150.08107 17011 ft 326 kts 305°
2026-04-22 08:02 -33.91317 150.05867 16999 ft 324 kts 296°
2026-04-22 08:03 -33.90700 150.03306 17004 ft 318 kts 271°
2026-04-22 08:03 -33.90994 150.00726 17004 ft 308 kts 245°
2026-04-22 08:03 -33.92119 149.98604 17002 ft 296 kts 220°
2026-04-22 08:03 -33.93821 149.97336 17004 ft 285 kts 194°
2026-04-22 08:04 -33.95743 149.97127 16999 ft 276 kts 169°
2026-04-22 08:04 -33.97490 149.97995 17009 ft 272 kts 143°
2026-04-22 08:04 -33.98686 149.99736 17009 ft 274 kts 118°
2026-04-22 08:04 -33.99223 150.01942 17017 ft 276 kts 104°
2026-04-22 08:05 -33.99536 150.04236 17016 ft 276 kts 102°
2026-04-22 08:05 -33.99808 150.06502 17025 ft 277 kts 101°
2026-04-22 08:05 -34.00075 150.08801 17026 ft 277 kts 101°
2026-04-22 08:05 -34.00343 150.11105 17027 ft 278 kts 101°
2026-04-22 08:06 -34.00610 150.13416 17026 ft 279 kts 101°
2026-04-22 08:06 -34.00874 150.15726 17025 ft 278 kts 101°
2026-04-22 08:06 -34.00735 150.18071 17006 ft 288 kts 78°
2026-04-22 08:06 -33.99718 150.20189 17006 ft 301 kts 53°
2026-04-22 08:07 -33.97988 150.21674 17007 ft 311 kts 31°
2026-04-22 08:07 -33.95987 150.22685 17010 ft 313 kts 25°
2026-04-22 08:07 -33.93941 150.23594 17015 ft 314 kts 24°
2026-04-22 08:07 -33.91887 150.24491 17013 ft 314 kts 25°
2026-04-22 08:08 -33.89826 150.25388 17011 ft 314 kts 24°
2026-04-22 08:08 -33.87772 150.26277 17013 ft 314 kts 24°
2026-04-22 08:08 -33.85718 150.27167 17016 ft 314 kts 24°
2026-04-22 08:08 -33.83654 150.28051 17014 ft 315 kts 22°
2026-04-22 08:09 -33.81460 150.28349 17008 ft 323 kts 358°
2026-04-22 08:09 -33.79332 150.27576 17010 ft 328 kts 333°
2026-04-22 08:09 -33.77592 150.25831 17008 ft 327 kts 308°
2026-04-22 08:09 -33.76574 150.23424 17009 ft 322 kts 282°
2026-04-22 08:10 -33.76448 150.20797 16995 ft 312 kts 257°
2026-04-22 08:10 -33.77149 150.18394 17007 ft 302 kts 238°
2026-04-22 08:10 -33.78171 150.16200 17010 ft 300 kts 234°
2026-04-22 08:10 -33.79251 150.14042 17010 ft 301 kts 233°
2026-04-22 08:11 -33.80336 150.11891 17010 ft 301 kts 233°
2026-04-22 08:11 -33.81423 150.09742 17015 ft 301 kts 233°
2026-04-22 08:11 -33.82516 150.07589 17014 ft 301 kts 233°
2026-04-22 08:11 -33.83590 150.05469 17012 ft 301 kts 233°
2026-04-22 08:12 -33.84679 150.03318 17008 ft 301 kts 233°
2026-04-22 08:12 -33.85768 150.01166 17007 ft 301 kts 233°
2026-04-22 08:12 -33.86864 149.99010 17005 ft 302 kts 233°
2026-04-22 08:12 -33.87962 149.96853 17006 ft 302 kts 233°
2026-04-22 08:13 -33.89065 149.94690 17006 ft 303 kts 233°
2026-04-22 08:13 -33.90169 149.92529 17006 ft 303 kts 233°
2026-04-22 08:13 -33.91422 149.90540 17002 ft 294 kts 217°
2026-04-22 08:13 -33.93143 149.89385 17004 ft 284 kts 192°
2026-04-22 08:14 -33.95069 149.89284 17004 ft 276 kts 167°
2026-04-22 08:14 -33.96779 149.90249 17010 ft 273 kts 141°
2026-04-22 08:14 -33.97912 149.92062 17002 ft 274 kts 116°
2026-04-22 08:14 -33.98449 149.94268 17022 ft 275 kts 105°
2026-04-22 08:15 -33.98822 149.96538 17019 ft 276 kts 103°
2026-04-22 08:15 -33.99169 149.98811 17024 ft 276 kts 103°
2026-04-22 08:15 -33.99508 150.01088 17022 ft 275 kts 103°
2026-04-22 08:15 -33.99847 150.03366 17020 ft 276 kts 103°
2026-04-22 08:16 -34.00189 150.05647 17026 ft 276 kts 103°
2026-04-22 08:16 -34.00532 150.07930 17026 ft 277 kts 103°
2026-04-22 08:16 -34.00875 150.10216 17025 ft 277 kts 103°
2026-04-22 08:16 -34.01221 150.12504 17029 ft 278 kts 103°
2026-04-22 08:17 -34.01568 150.14797 17030 ft 278 kts 103°
2026-04-22 08:17 -34.01914 150.17089 17033 ft 278 kts 103°
2026-04-22 08:17 -34.02261 150.19383 17027 ft 277 kts 104°
2026-04-22 08:17 -34.03017 150.21471 17013 ft 272 kts 128°
2026-04-22 08:18 -34.04477 150.22889 17015 ft 272 kts 152°
2026-04-22 08:18 -34.06256 150.23672 17004 ft 272 kts 161°
2026-04-22 08:18 -34.08076 150.24292 17028 ft 272 kts 162°
2026-04-22 08:18 -34.09885 150.24883 17028 ft 273 kts 162°
2026-04-22 08:19 -34.11719 150.25476 17034 ft 274 kts 162°
2026-04-22 08:19 -34.13563 150.26072 17034 ft 274 kts 162°
2026-04-22 08:19 -34.15409 150.26666 17031 ft 274 kts 162°
2026-04-22 08:19 -34.17252 150.27257 17031 ft 274 kts 162°
2026-04-22 08:20 -34.19097 150.27847 17030 ft 274 kts 162°
2026-04-22 08:20 -34.20945 150.28438 17032 ft 274 kts 162°
2026-04-22 08:20 -34.22788 150.29009 17030 ft 271 kts 161°
2026-04-22 08:20 -34.24392 150.30145 17021 ft 269 kts 136°
2026-04-22 08:21 -34.25365 150.32070 17022 ft 272 kts 110°
2026-04-22 08:21 -34.25482 150.34337 17024 ft 281 kts 85°
2026-04-22 08:21 -34.24701 150.36541 17019 ft 294 kts 60°
2026-04-22 08:21 -34.23139 150.38184 17017 ft 306 kts 34°
2026-04-22 08:22 -34.21101 150.39040 17021 ft 313 kts 18°
2026-04-22 08:22 -34.18969 150.39570 17021 ft 312 kts 15°
2026-04-22 08:22 -34.16836 150.40044 17021 ft 311 kts 14°
2026-04-22 08:22 -34.14700 150.40515 17028 ft 312 kts 15°
2026-04-22 08:23 -34.12560 150.40980 17030 ft 313 kts 15°
2026-04-22 08:23 -34.10411 150.41449 17030 ft 314 kts 14°
2026-04-22 08:23 -34.08267 150.41918 17030 ft 312 kts 14°
2026-04-22 08:23 -34.06121 150.42383 17027 ft 313 kts 14°
2026-04-22 08:24 -34.03999 150.42839 17029 ft 314 kts 14°
2026-04-22 08:24 -34.01849 150.43304 17030 ft 314 kts 14°
2026-04-22 08:24 -33.99692 150.43766 17030 ft 315 kts 14°
2026-04-22 08:24 -33.97531 150.44233 17033 ft 316 kts 14°
2026-04-22 08:25 -33.95361 150.44703 17030 ft 316 kts 14°
2026-04-22 08:25 -33.93197 150.45171 17032 ft 317 kts 14°
2026-04-22 08:25 -33.91022 150.45646 17030 ft 317 kts 14°
2026-04-22 08:25 -33.88851 150.46119 17032 ft 317 kts 14°
2026-04-22 08:26 -33.86678 150.46596 17031 ft 318 kts 14°
2026-04-22 08:26 -33.84495 150.47080 17029 ft 318 kts 15°
2026-04-22 08:26 -33.82340 150.47563 17027 ft 318 kts 14°
2026-04-22 08:26 -33.80164 150.48047 17030 ft 318 kts 14°
2026-04-22 08:27 -33.77990 150.48529 17026 ft 318 kts 14°
2026-04-22 08:27 -33.75816 150.49013 17027 ft 318 kts 14°
2026-04-22 08:27 -33.74368 150.49336 17026 ft 318 kts 14°
2026-04-22 08:27 -33.72190 150.49824 17025 ft 318 kts 14°
2026-04-22 08:28 -33.69273 150.50478 17024 ft 319 kts 14°
2026-04-22 08:28 -33.67121 150.50961 17020 ft 319 kts 14°
2026-04-22 08:28 -33.65003 150.51665 17004 ft 312 kts 29°
2026-04-22 08:28 -33.63329 150.53213 16997 ft 300 kts 55°
2026-04-22 08:29 -33.62380 150.55360 16786 ft 282 kts 76°
2026-04-22 08:29 -33.62117 150.56881 15673 ft 275 kts 90°
2026-04-22 08:29 -33.62364 150.59140 13981 ft 274 kts 107°
2026-04-22 08:29 -33.63145 150.61183 12206 ft 272 kts 123°
2026-04-22 08:30 -33.64362 150.62898 10542 ft 268 kts 134°
2026-04-22 08:30 -33.65673 150.64492 9145 ft 268 kts 134°
2026-04-22 08:30 -33.66894 150.66128 9066 ft 263 kts 131°
2026-04-22 08:30 -33.68084 150.67837 8771 ft 269 kts 130°
2026-04-22 08:31 -33.69299 150.69561 8424 ft 271 kts 131°
2026-04-22 08:31 -33.70531 150.71266 8067 ft 270 kts 131°
2026-04-22 08:31 -33.72978 150.74682 7359 ft 268 kts 131°
2026-04-22 08:32 -33.74179 150.76361 7006 ft 267 kts 132°
2026-04-22 08:32 -33.75391 150.78056 6650 ft 267 kts 132°
2026-04-22 08:32 -33.76600 150.79748 6287 ft 265 kts 132°
2026-04-22 08:32 -33.77796 150.81425 5943 ft 263 kts 132°
2026-04-22 08:33 -33.78986 150.83089 5591 ft 262 kts 132°
2026-04-22 08:33 -33.80165 150.84743 5251 ft 260 kts 132°
2026-04-22 08:33 -33.81339 150.86388 4895 ft 258 kts 132°
2026-04-22 08:33 -33.82502 150.88018 4552 ft 255 kts 132°
2026-04-22 08:34 -33.83649 150.89627 4220 ft 253 kts 132°
2026-04-22 08:34 -33.84790 150.91231 3883 ft 251 kts 131°
2026-04-22 08:34 -33.85916 150.92816 3554 ft 247 kts 130°
2026-04-22 08:34 -33.86920 150.94470 3221 ft 243 kts 125°
2026-04-22 08:35 -33.87850 150.96158 2900 ft 239 kts 122°
2026-04-22 08:35 -33.88439 150.98015 2612 ft 235 kts 112°
2026-04-22 08:35 -33.89374 150.99585 2331 ft 232 kts 139°
2026-04-22 08:35 -33.90657 151.00710 2054 ft 231 kts 144°
2026-04-22 08:36 -33.91853 151.01956 2010 ft 222 kts 135°
2026-04-22 08:36 -33.92870 151.03310 2006 ft 214 kts 132°
2026-04-22 08:36 -33.93703 151.04736 1978 ft 206 kts 118°
2026-04-22 08:36 -33.94393 151.06225 1874 ft 199 kts 129°
2026-04-22 08:37 -33.95230 151.07511 1986 ft 184 kts 141°
2026-04-22 08:37 -33.96396 151.07841 2098 ft 181 kts 191°
2026-04-22 08:37 -33.97206 151.06705 2049 ft 201 kts 261°
2026-04-22 08:37 -33.96569 151.05258 1684 ft 203 kts 320°
2026-04-22 08:38 -33.95513 151.04400 1207 ft 169 kts 325°
2026-04-22 08:38 -33.94756 151.03456 821 ft 146 kts 297°
2026-04-22 08:38 -33.94283 151.02479 619 ft 127 kts 304°
2026-04-22 08:38 -33.93802 151.01663 440 ft 111 kts 303°
2026-04-22 08:39 -33.93407 151.00942 294 ft 100 kts 298°
2026-04-22 08:39 -33.92943 151.00109 354 ft 140 kts 303°
2026-04-22 08:39 -33.92377 150.99069 816 ft 156 kts 301°
2026-04-22 08:39 -33.91773 150.97917 1405 ft 168 kts 300°
2026-04-22 08:40 -33.91151 150.96711 2075 ft 173 kts 300°
2026-04-22 08:40 -33.90387 150.95549 2672 ft 183 kts 323°
2026-04-22 08:40 -33.89179 150.95256 3002 ft 187 kts 20°
2026-04-22 08:40 -33.88265 150.96374 2929 ft 196 kts 78°
2026-04-22 08:41 -33.88484 150.97895 2934 ft 190 kts 115°
2026-04-22 08:41 -33.89075 150.99369 2747 ft 202 kts 118°
2026-04-22 08:41 -33.89714 151.00875 2429 ft 198 kts 118°
2026-04-22 08:41 -33.90319 151.02304 2100 ft 187 kts 118°
2026-04-22 08:42 -33.90894 151.03676 2030 ft 181 kts 119°
2026-04-22 08:42 -33.91453 151.05037 2027 ft 181 kts 118°
2026-04-22 08:42 -33.92119 151.06294 2025 ft 176 kts 139°
2026-04-22 08:42 -33.93213 151.06780 2021 ft 169 kts 180°
2026-04-22 08:43 -33.94267 151.06206 2026 ft 172 kts 218°
2026-04-22 08:43 -33.94941 151.05017 1961 ft 177 kts 244°
2026-04-22 08:43 -33.95035 151.03548 1444 ft 180 kts 281°
2026-04-22 08:43 -33.94290 151.02401 837 ft 169 kts 319°
2026-04-22 08:44 -33.93632 151.01395 475 ft 129 kts 297°
2026-04-22 08:44 -33.93224 151.00618 248 ft 98 kts 297°
2026-04-22 08:44 -33.92789 150.99849 115 ft 115 kts 302°
2026-04-22 08:44 -33.92385 150.99121 32 ft 89 kts 300°
2026-04-22 08:45 -33.92175 150.98743 31 ft 21 kts 304°
2026-04-22 08:45 -33.92122 150.98688 31 ft 5 kts 355°
2026-04-22 08:45 -33.92069 150.98690 31 ft 10 kts
2026-04-22 08:45 -33.91983 150.98692 31 ft 12 kts 356°
2026-04-22 08:46 -33.91932 150.98685 32 ft 12 kts
2026-04-22 08:46 -33.91814 150.98692 32 ft 16 kts
2026-04-22 08:46 -33.91742 150.98739 32 ft 7 kts 101°
2026-04-22 08:46 -33.91758 150.98848 32 ft 13 kts 118°
2026-04-22 08:47 -33.91758 150.98911 32 ft 9 kts 23°
2026-04-22 08:47 -33.91730 150.98933 32 ft 4 kts 128°
2026-04-22 08:47 -33.91734 150.98937 32 ft 0 kts 151°